Weather History for Homestead AFB, FL

Change the Weather History Date:

Wednesday, October 2, 2013

  Actual Average Record
Temperature  
Mean Temperature 80 °F -  
Max Temperature 87 °F 87 °F 93 °F (1939)
Min Temperature 75 °F 70 °F 61 °F (1976)
Cooling Degree Days 16    
Growing Degree Days 30 (Base 50)    
Moisture  
Dew Point 75 °F    
Average Humidity 87    
Maximum Humidity 96    
Minimum Humidity 70    
Precipitation  
Precipitation 0.13 in - - ()
Sea Level Pressure  
Sea Level Pressure 29.99 in    
Wind  
Wind Speed 9 mph (NE)    
Max Wind Speed 17 mph    
Max Gust Speed 22 mph    
Visibility 10 miles    
Events Rain , Thunderstorm    
Averages and records for this station are not official NWS values.
T = Trace of Precipitation, MM = Missing Value Source: NWS Daily Summary

Daily Weather History Graph

Daily Weather History Graph

Search for Another Location

Airport:

Trip Planner

Search our weather history database for the weather conditions in past years. The results will help you decide how hot, cold, wet, or windy it might be!

Date:

Astronomy

Oct. 02, 2013 Rise Set
Actual Time 7:14 AM EDT 7:06 PM EDT
Civil Twilight 6:51 AM EDT 7:29 PM EDT
Nautical Twilight 6:24 AM EDT 7:56 PM EDT
Astronomical Twilight 5:58 AM EDT 8:22 PM EDT
Moon 4:57 AM EDT (10/2) 5:33 PM EDT (10/2)
Length of Visible Light 12h 38m
Length of Day
11h 52m
Waning Crescent, 6% of the Moon is Illuminated
Oct 2
Waning Crescent
Oct 4
New
Oct 11
First Quarter
Oct 18
Full
Oct 26
Last Quarter

Hourly Weather History & Observations

Time (EDT) Temp. Heat Index Dew Point Humidity Pressure Visibility Wind Dir Wind Speed Gust Speed Precip Events Conditions
12:58 AM 79.2 °F - 74.1 °F 84% 30.03 in 10.0 mi East 10.4 mph - N/A   Clear
1:58 AM 79.5 °F - 75.0 °F 86% 30.02 in 10.0 mi East 8.1 mph - N/A   Scattered Clouds
2:29 AM 80.6 °F 86.2 °F 75.2 °F 84% 30.00 in 10.0 mi East 8.1 mph - N/A   Light Drizzle
2:58 AM 78.6 °F - 75.2 °F 89% 30.00 in 10.0 mi ENE 3.5 mph - 0.00 in   Light Drizzle
2:59 AM 78.8 °F - 75.2 °F 89% 29.99 in 10.0 mi ENE 2.3 mph - N/A   Partly Cloudy
3:45 AM 78.8 °F - 75.2 °F 89% 29.97 in 10.0 mi ENE 5.8 mph - N/A Rain Light Rain
3:50 AM 78.8 °F - 75.2 °F 89% 29.97 in 10.0 mi ENE 3.5 mph - N/A   Light Drizzle
3:56 AM 78.8 °F - 75.2 °F 89% 29.97 in 10.0 mi ENE 5.8 mph - N/A   Mostly Cloudy
3:58 AM 78.8 °F - 75.2 °F 89% 29.98 in 10.0 mi ENE 5.8 mph - 0.00 in   Mostly Cloudy
4:03 AM 78.8 °F - 77.0 °F 94% 29.96 in 10.0 mi NE 5.8 mph - N/A   Light Drizzle
4:08 AM 78.8 °F - 77.0 °F 94% 29.96 in 10.0 mi ENE 5.8 mph - N/A   Light Drizzle
4:09 AM 78.8 °F - 77.0 °F 94% 29.96 in 10.0 mi ENE 5.8 mph - N/A   Scattered Clouds
4:58 AM 77.9 °F - 75.9 °F 94% 29.97 in 10.0 mi East 3.5 mph - 0.00 in   Scattered Clouds
5:58 AM 78.3 °F - 74.8 °F 89% 29.98 in 10.0 mi East 5.8 mph - N/A   Clear
6:58 AM 79.0 °F - 75.2 °F 88% 29.99 in 10.0 mi East 6.9 mph - N/A   Partly Cloudy
7:58 AM 79.5 °F - 75.2 °F 87% 30.00 in 10.0 mi East 6.9 mph - N/A   Partly Cloudy
8:58 AM 82.8 °F 90.1 °F 75.2 °F 78% 30.02 in 10.0 mi East 12.7 mph - N/A   Scattered Clouds
9:58 AM 83.5 °F 91.2 °F 75.4 °F 76% 30.03 in 10.0 mi ESE 8.1 mph - N/A   Partly Cloudy
10:58 AM 84.9 °F 92.5 °F 74.3 °F 70% 30.03 in 10.0 mi ESE 10.4 mph - N/A   Clear
11:58 AM 84.9 °F 93.7 °F 75.4 °F 73% 30.03 in 10.0 mi East 12.7 mph - N/A   Scattered Clouds
12:58 PM 85.6 °F 94.2 °F 74.7 °F 70% 30.03 in 10.0 mi East 11.5 mph - N/A   Scattered Clouds
1:58 PM 85.5 °F 93.8 °F 74.7 °F 70% 30.01 in 10.0 mi East 12.7 mph - N/A   Clear
2:58 PM 86.5 °F 97.8 °F 76.8 °F 73% 29.99 in 10.0 mi East 13.8 mph - N/A   Scattered Clouds
3:28 PM 84.2 °F 92.3 °F 75.2 °F 74% 29.97 in 10.0 mi NE 11.5 mph - N/A Thunderstorm Mostly Cloudy
3:58 PM 80.4 °F 85.1 °F 73.8 °F 80% 29.98 in 10.0 mi NNE 15.0 mph 21.9 mph N/A Thunderstorm Mostly Cloudy
3:59 PM 80.6 °F 85.4 °F 73.4 °F 79% 29.97 in 10.0 mi North 15.0 mph 21.9 mph N/A Thunderstorm Thunderstorm
4:13 PM 78.8 °F - 73.4 °F 83% 29.97 in 10.0 mi North 15.0 mph - N/A Thunderstorm Mostly Cloudy
4:43 PM 78.8 °F - 73.4 °F 83% 29.97 in 10.0 mi NNE 15.0 mph - N/A   Mostly Cloudy
4:48 PM 78.8 °F - 73.4 °F 83% 29.98 in 10.0 mi NNE 12.7 mph - N/A   Mostly Cloudy
4:53 PM 78.8 °F - 73.4 °F 83% 29.98 in 10.0 mi NNE 13.8 mph - N/A   Mostly Cloudy
4:58 PM 78.8 °F - 73.6 °F 84% 29.99 in 10.0 mi NNE 12.7 mph - N/A   Mostly Cloudy
5:03 PM 78.8 °F - 73.4 °F 83% 29.98 in 10.0 mi NNE 12.7 mph - N/A   Scattered Clouds
5:12 PM 77.0 °F - 73.4 °F 89% 29.99 in 10.0 mi NNE 10.4 mph - N/A Thunderstorm Thunderstorm
5:27 PM 77.0 °F - 73.4 °F 89% 29.98 in 10.0 mi NNE 17.3 mph - N/A Thunderstorm Scattered Clouds
5:30 PM 77.0 °F - 73.4 °F 89% 29.98 in 10.0 mi NNE 16.1 mph - N/A Rain , Thunderstorm Light Thunderstorms and Rain
5:39 PM 77.0 °F - 75.2 °F 94% 29.98 in 10.0 mi NNE 12.7 mph - N/A Rain , Thunderstorm Light Thunderstorms and Rain
5:40 PM 77.0 °F - 75.2 °F 94% 29.98 in 10.0 mi NNE 10.4 mph - N/A Rain , Thunderstorm Light Thunderstorms and Rain
5:58 PM 77.0 °F - 75.2 °F 94% 29.99 in 4.0 mi East 12.7 mph - 0.02 in Rain , Thunderstorm Light Thunderstorms and Rain
5:59 PM 77.0 °F - 75.2 °F 94% 29.98 in 4.0 mi East 12.7 mph - N/A Rain , Thunderstorm Heavy Rain
6:04 PM 77.0 °F - 75.2 °F 94% 29.98 in 4.0 mi ENE 10.4 mph - N/A Rain , Thunderstorm Light Rain
6:14 PM 77.0 °F - 75.2 °F 94% 29.98 in 8.0 mi NE 9.2 mph - N/A Rain Light Rain
6:58 PM 76.3 °F - 75.2 °F 96% 30.00 in 10.0 mi NE 9.2 mph - 0.05 in Rain Light Rain
7:10 PM 77.0 °F - 75.2 °F 94% 29.99 in 10.0 mi ENE 5.8 mph - N/A Rain , Thunderstorm Light Thunderstorms and Rain
7:28 PM 77.0 °F - 73.4 °F 89% 29.99 in 10.0 mi NE 6.9 mph - N/A Rain , Thunderstorm Light Thunderstorms and Rain
7:58 PM 75.4 °F - 71.2 °F 87% 30.01 in 7.0 mi NNE 8.1 mph - 0.04 in Rain , Thunderstorm Thunderstorms and Rain
8:12 PM 75.2 °F - 71.6 °F 89% 30.00 in 10.0 mi NNE 11.5 mph - N/A Rain Light Rain
8:58 PM 75.2 °F - 71.6 °F 89% 30.02 in 10.0 mi NE 9.2 mph - 0.02 in   Mostly Cloudy
9:58 PM 76.1 °F - 74.1 °F 94% 30.05 in 10.0 mi NE 5.8 mph - N/A   Mostly Cloudy
10:58 PM 75.9 °F - 74.3 °F 95% 30.05 in 10.0 mi North 5.8 mph - N/A   Scattered Clouds
11:58 PM 75.2 °F - 73.8 °F 95% 30.05 in 10.0 mi NNE 5.8 mph - N/A   Partly Cloudy